Hayden, CO

8:15 AM MDT on March 26, 2017 (GMT -0600)
Yampa Valley

Weather History for KHDN - June, 2013

Change the Weather History Date:

Thursday, June 27, 2013

  Actual Average Record
Temperature  
Mean Temperature 71 °F -  
Max Temperature 89 °F 83 °F 93 °F (1990)
Min Temperature 53 °F 45 °F 35 °F (1985)
Cooling Degree Days 6    
Growing Degree Days 21 (Base 50)    
Moisture  
Dew Point 38 °F    
Average Humidity 34    
Maximum Humidity 58    
Minimum Humidity 13    
Precipitation  
Precipitation 0.00 in - - ()
Sea Level Pressure  
Sea Level Pressure 30.36 in    
Wind  
Wind Speed 7 mph (ESE)    
Max Wind Speed 14 mph    
Max Gust Speed -    
Visibility 10 miles    
Events      
Averages and records for this station are not official NWS values.
T = Trace of Precipitation, MM = Missing Value Source: NWS Daily Summary

Daily Weather History Graph

Daily Weather History Graph

Search for Another Location

Airport or City:

Trip Planner

Search our weather history database for the weather conditions in past years. The results will help you decide how hot, cold, wet, or windy it might be!

Date:

Astronomy

Jun. 27, 2013 Rise Set
Actual Time 5:40 AM MDT 8:43 PM MDT
Civil Twilight 5:07 AM MDT 9:16 PM MDT
Nautical Twilight 4:25 AM MDT 9:58 PM MDT
Astronomical Twilight 3:35 AM MDT 10:48 PM MDT
Moon 11:40 PM MDT (6/27) 10:46 AM MDT (6/27)
Length of Visible Light 16h 09m
Length of Day
15h 02m
Waning Gibbous, 76% of the Moon is Illuminated
Jun 27
Waning Gibbous
Jun 29
Last Quarter
Jul 8
New
Jul 15
First Quarter
Jul 22
Full

Hourly Weather History & Observations

Time (MDT) Temp. Dew Point Humidity Pressure Visibility Wind Dir Wind Speed Gust Speed Precip Events Conditions
12:15 AM 57.2 °F 39.2 °F 51% 30.30 in 10.0 mi East 3.5 mph - N/A   Clear
12:35 AM 57.2 °F 37.4 °F 48% 30.30 in 10.0 mi South 8.1 mph - N/A   Clear
12:55 AM 59.0 °F 37.4 °F 45% 30.30 in 10.0 mi SSW 8.1 mph - N/A   Clear
1:15 AM 59.0 °F 37.4 °F 45% 30.31 in 10.0 mi Calm Calm - N/A   Clear
1:35 AM 59.0 °F 37.4 °F 45% 30.32 in 10.0 mi ENE 4.6 mph - N/A   Clear
1:55 AM 53.6 °F 39.2 °F 58% 30.32 in 10.0 mi East 5.8 mph - N/A   Clear
2:15 AM 53.6 °F 37.4 °F 54% 30.32 in 10.0 mi ESE 5.8 mph - N/A   Clear
2:35 AM 57.2 °F 37.4 °F 48% 30.33 in 10.0 mi ESE 5.8 mph - N/A   Clear
2:55 AM 55.4 °F 35.6 °F 47% 30.33 in 10.0 mi SE 9.2 mph - N/A   Clear
3:15 AM 53.6 °F 37.4 °F 54% 30.34 in 10.0 mi ESE 9.2 mph - N/A   Clear
3:35 AM 55.4 °F 37.4 °F 51% 30.34 in 10.0 mi ESE 10.4 mph - N/A   Clear
4:15 AM 55.4 °F 37.4 °F 51% 30.34 in 10.0 mi SE 11.5 mph - N/A   Clear
4:35 AM 55.4 °F 37.4 °F 51% 30.35 in 10.0 mi SE 13.8 mph - N/A   Clear
4:55 AM 55.4 °F 37.4 °F 51% 30.35 in 10.0 mi SE 11.5 mph - N/A   Clear
5:15 AM 55.4 °F 37.4 °F 51% 30.36 in 10.0 mi SE 13.8 mph - N/A   Clear
5:35 AM 53.6 °F 37.4 °F 54% 30.36 in 10.0 mi SE 11.5 mph - N/A   Clear
5:55 AM 53.6 °F 37.4 °F 54% 30.37 in 10.0 mi ESE 11.5 mph - N/A   Clear
6:15 AM 53.6 °F 35.6 °F 51% 30.38 in 10.0 mi SE 12.7 mph - N/A   Clear
6:35 AM 55.4 °F 37.4 °F 51% 30.38 in 10.0 mi SE 11.5 mph - N/A   Clear
6:55 AM 57.2 °F 37.4 °F 48% 30.39 in 10.0 mi SE 12.7 mph - N/A   Clear
7:15 AM 57.2 °F 37.4 °F 48% 30.39 in 10.0 mi SE 12.7 mph - N/A   Clear
7:35 AM 57.2 °F 39.2 °F 51% 30.40 in 10.0 mi SE 12.7 mph - N/A   Clear
7:55 AM 60.8 °F 39.2 °F 45% 30.40 in 10.0 mi SE 12.7 mph - N/A   Clear
8:15 AM 62.6 °F 39.2 °F 42% 30.41 in 10.0 mi SE 10.4 mph - N/A   Clear
8:35 AM 64.4 °F 39.2 °F 40% 30.41 in 10.0 mi ESE 11.5 mph - N/A   Clear
8:55 AM 66.2 °F 41.0 °F 40% 30.41 in 10.0 mi ESE 11.5 mph - N/A   Clear
9:15 AM 68.0 °F 41.0 °F 37% 30.41 in 10.0 mi SE 9.2 mph - N/A   Clear
9:35 AM 71.6 °F 41.0 °F 33% 30.42 in 10.0 mi SE 9.2 mph - N/A   Clear
9:55 AM 73.4 °F 41.0 °F 31% 30.42 in 10.0 mi ESE 6.9 mph - N/A   Clear
10:15 AM 73.4 °F 42.8 °F 33% 30.41 in 10.0 mi ESE 5.8 mph - N/A   Clear
10:35 AM 77.0 °F 42.8 °F 29% 30.41 in 10.0 mi East 5.8 mph - N/A   Clear
10:55 AM 78.8 °F 41.0 °F 26% 30.41 in 10.0 mi SE 4.6 mph - N/A   Clear
11:15 AM 78.8 °F 37.4 °F 23% 30.41 in 10.0 mi Calm Calm - N/A   Clear
11:35 AM 80.6 °F 37.4 °F 21% 30.41 in 10.0 mi SE 5.8 mph - N/A   Clear
11:55 AM 82.4 °F 39.2 °F 21% 30.41 in 10.0 mi NE 5.8 mph - N/A   Clear
12:15 PM 82.4 °F 39.2 °F 21% 30.41 in 10.0 mi NE 3.5 mph - N/A   Clear
12:35 PM 82.4 °F 39.2 °F 21% 30.41 in 10.0 mi Calm Calm - N/A   Clear
12:55 PM 84.2 °F 39.2 °F 20% 30.40 in 10.0 mi West 6.9 mph - N/A   Clear
1:15 PM 84.2 °F 37.4 °F 19% 30.40 in 10.0 mi NNW 3.5 mph - N/A   Clear
1:35 PM 84.2 °F 39.2 °F 20% 30.39 in 10.0 mi NE 5.8 mph - N/A   Clear
1:55 PM 86.0 °F 37.4 °F 18% 30.39 in 10.0 mi NE 5.8 mph - N/A   Clear
2:15 PM 87.8 °F 37.4 °F 17% 30.38 in 10.0 mi ENE 3.5 mph - N/A   Clear
2:55 PM 87.8 °F 35.6 °F 16% 30.38 in 10.0 mi SSW 4.6 mph - N/A   Clear
3:15 PM 87.8 °F 33.8 °F 15% 30.37 in 10.0 mi SE 3.5 mph - N/A   Clear
3:35 PM 87.8 °F 33.8 °F 15% 30.37 in 10.0 mi SSE 4.6 mph - N/A   Clear
4:15 PM 87.8 °F 33.8 °F 15% 30.35 in 10.0 mi NW 3.5 mph - N/A   Clear
4:55 PM 89.6 °F 33.8 °F 14% 30.34 in 10.0 mi North 6.9 mph - N/A   Clear
5:15 PM 89.6 °F 33.8 °F 14% 30.34 in 10.0 mi WNW 4.6 mph - N/A   Clear
5:55 PM 87.8 °F 33.8 °F 15% 30.34 in 10.0 mi East 3.5 mph - N/A   Clear
6:15 PM 89.6 °F 32.0 °F 13% 30.34 in 10.0 mi Calm Calm - N/A   Clear
6:35 PM 87.8 °F 33.8 °F 15% 30.34 in 10.0 mi NE 3.5 mph - N/A   Clear
6:55 PM 87.8 °F 33.8 °F 15% 30.33 in 7.0 mi Calm Calm - N/A   Clear
7:15 PM 87.8 °F 33.8 °F 15% 30.34 in 10.0 mi Calm Calm - N/A   Clear
7:35 PM 87.8 °F 33.8 °F 15% 30.33 in 10.0 mi Calm Calm - N/A   Clear
8:15 PM 86.0 °F 33.8 °F 15% 30.33 in 10.0 mi East 3.5 mph - N/A   Clear
8:35 PM 82.4 °F 39.2 °F 21% 30.33 in 10.0 mi ESE 5.8 mph - N/A   Clear
8:55 PM 78.8 °F 39.2 °F 24% 30.34 in 10.0 mi SSW 3.5 mph - N/A   Clear
9:15 PM 73.4 °F 41.0 °F 31% 30.34 in 10.0 mi WSW 6.9 mph - N/A   Clear
9:35 PM 68.0 °F 41.0 °F 37% 30.35 in 10.0 mi WSW 4.6 mph - N/A   Clear
9:55 PM 69.8 °F 39.2 °F 33% 30.35 in 10.0 mi Calm Calm - N/A   Clear
10:15 PM 69.8 °F 39.2 °F 33% 30.36 in 10.0 mi Calm Calm - N/A   Clear
10:35 PM 66.2 °F 39.2 °F 37% 30.36 in 10.0 mi SSE 3.5 mph - N/A   Clear
10:55 PM 69.8 °F 37.4 °F 31% 30.36 in 10.0 mi ESE 6.9 mph - N/A   Clear
11:15 PM 64.4 °F 39.2 °F 40% 30.36 in 10.0 mi SE 6.9 mph - N/A   Clear
11:35 PM 64.4 °F 41.0 °F 42% 30.35 in 10.0 mi SE 10.4 mph - N/A   Clear
11:55 PM 64.4 °F 39.2 °F 40% 30.35 in 10.0 mi SE 8.1 mph - N/A   Clear